GFSMW_925_temp_021.txt.gz
Temp
27 25 23 23 23 22 23 22 22 19 20 21 20 21 21 20 20 20 18 17 17 16 15 16 16 16 16 16 15 15 16 16 16 16 17 17 16 17 16 16 16 16 15
26 24 23 22 21 21 21 21 20 19 19 20 19 18 18 19 18 18 17 17 16 15 15 14 14 15 15 15 15 15 15 15 15 16 16 17 17 18 17 16 16 16 15
25 24 23 21 20 20 20 20 19 18 17 17 19 19 19 19 19 18 17 17 15 14 14 13 13 13 13 14 14 14 14 14 14 15 15 15 16 18 18 18 16 16 15
25 24 22 21 19 19 18 18 18 18 17 16 17 16 17 17 17 16 16 15 14 14 14 14 13 12 12 12 12 13 12 12 13 13 14 14 13 12 13 15 16 15 14
23 23 21 20 19 18 18 18 18 17 17 16 15 15 16 16 15 14 14 14 14 14 13 13 12 11 11 11 10 9 8 9 8 8 7 8 10 11 8 10 13 14 13
23 22 21 21 20 18 18 18 18 18 17 16 15 14 14 13 14 14 14 14 13 13 12 12 11 10 10 9 8 6 5 4 4 4 3 2 2 2 2 3 4 3 6
22 22 22 21 20 19 18 18 18 17 17 16 15 14 14 14 13 13 13 11 11 11 11 10 10 10 8 7 6 5 4 3 3 3 2 2 2 1 1 1 2 2 2
22 21 21 20 20 19 18 17 17 17 17 16 15 14 13 13 12 12 10 10 10 10 10 9 9 7 6 5 5 4 4 3 4 3 4 4 3 3 3 3 3 4 5
21 21 21 20 19 18 18 17 16 16 16 15 14 13 12 12 11 10 9 9 9 9 9 8 7 6 6 5 4 4 4 4 4 4 4 4 4 4 4 3 3 2 3
21 21 20 19 19 18 17 16 16 16 14 14 13 12 11 11 9 9 8 8 8 8 7 6 6 5 4 4 4 4 4 3 3 3 2 2 3 3 2 3 3 3 3
21 21 20 18 18 17 16 16 15 14 13 13 12 11 10 9 8 8 8 8 7 7 7 7 5 4 3 3 2 3 3 3 3 3 3 3 4 5 5 5 5 5 5
20 20 19 18 17 16 16 15 14 13 12 12 11 10 10 9 9 8 7 6 6 6 5 4 2 2 2 2 2 2 2 2 3 3 3 3 4 4 4 4 4 4 5
20 19 18 17 17 16 15 14 13 12 11 11 10 10 10 8 6 6 4 5 5 5 5 4 3 3 3 4 4 4 3 3 3 3 3 3 3 3 3 3 3 3 4
18 17 17 16 15 14 14 13 12 11 10 10 9 9 7 6 6 5 5 5 5 5 5 5 5 4 4 3 3 3 2 2 2 2 2 2 2 2 2 2 2 2 2
18 17 15 15 14 14 13 12 11 11 10 9 9 8 7 6 6 5 5 5 5 5 5 4 4 4 3 3 1 0 -0 0 1 1 2 2 2 1 0 -0 -0 -0 0
16 13 13 14 13 13 12 11 11 10 9 9 8 8 7 6 5 5 5 5 5 4 4 4 3 3 3 1 -0 -2 -2 -1 -1 0 1 1 1 1 0 -1 -1 -2 -2
11 10 13 13 13 13 12 11 11 10 9 9 8 7 6 5 5 5 5 4 4 3 3 3 3 2 2 -0 -1 -2 -3 -3 -2 -0 0 0 1 0 0 0 -2 -3 -4
11 13 13 13 13 12 12 11 10 10 9 9 8 6 5 5 5 5 4 4 3 3 3 2 2 1 1 -1 -3 -4 -4 -3 -2 -2 -1 -1 -1 -1 -3 -3 -3 -3 -2
12 13 12 12 12 12 11 11 10 10 9 9 8 7 5 5 5 4 4 3 3 3 2 2 1 -0 -1 -2 -4 -5 -4 -4 -4 -4 -3 -3 -3 -3 -4 -4 -4 -3 -3
13 13 12 12 12 12 11 10 10 10 9 9 8 7 5 5 4 4 3 3 3 3 2 -0 -1 -2 -3 -3 -4 -5 -5 -5 -5 -4 -4 -4 -4 -4 -4 -4 -4 -4 -3
13 12 12 12 11 10 10 10 10 10 9 8 7 6 5 3 4 3 3 3 3 2 -0 -2 -2 -2 -3 -3 -4 -5 -5 -5 -5 -5 -5 -4 -5 -6 -6 -6 -6 -5 -5
13 12 11 11 10 9 9 9 9 9 8 7 6 3 1 2 3 3 3 3 2 1 -1 -2 -3 -3 -4 -3 -4 -6 -6 -6 -6 -6 -5 -5 -6 -6 -6 -7 -6 -6 -7
12 11 10 9 9 8 8 8 7 6 5 5 3 2 2 2 3 2 2 2 1 -0 -2 -3 -3 -3 -3 -4 -4 -6 -6 -6 -7 -6 -6 -6 -6 -7 -6 -5 -6 -6 -6
10 10 9 9 8 8 7 6 5 4 3 3 3 2 2 2 2 2 2 1 -0 -2 -3 -3 -4 -4 -4 -5 -6 -7 -7 -7 -7 -7 -7 -6 -6 -6 -6 -5 -5 -5 -5
9 8 8 8 8 7 6 5 3 3 2 2 2 2 2 2 1 0 1 -0 -2 -4 -4 -4 -5 -6 -6 -6 -8 -8 -8 -8 -8 -8 -6 -6 -7 -7 -6 -6 -6 -5 -5
8 8 8 8 7 6 5 3 2 1 0 0 1 2 1 1 -1 -1 -1 -2 -3 -4 -5 -6 -7 -7 -8 -8 -8 -8 -8 -9 -9 -7 -7 -7 -7 -7 -7 -7 -6 -6 -6

GFSMW_925_temp_024.txt.gz
Temp
25 24 24 23 23 23 22 22 20 20 20 21 20 20 20 19 20 19 18 17 17 16 15 15 15 15 15 15 15 14 14 14 15 15 15 15 16 16 16 17 17 16 16
24 23 22 21 21 21 21 21 20 19 19 19 19 19 19 19 19 19 18 17 17 16 15 15 14 13 13 13 13 13 14 14 14 14 14 13 14 15 16 16 16 16 16
24 23 21 20 20 20 20 20 19 18 17 18 18 18 18 18 18 18 17 17 15 14 14 14 14 13 13 12 12 12 12 12 12 13 13 11 11 12 13 14 14 14 14
24 23 21 20 19 19 19 19 19 18 17 16 16 16 16 16 15 15 15 15 14 14 13 13 13 12 12 11 11 11 9 8 7 8 9 7 7 8 9 12 12 12 11
23 22 21 20 18 18 18 18 19 18 17 16 16 15 15 14 14 14 14 13 13 12 12 12 11 11 10 10 9 8 7 6 6 5 5 5 6 6 5 6 6 8 8
22 22 22 21 19 19 18 18 18 18 18 17 16 15 14 14 14 13 13 12 11 11 10 10 10 10 9 8 7 7 6 5 5 4 4 3 2 2 1 2 2 2 4
22 22 22 21 20 19 19 18 18 17 17 16 16 15 14 13 13 12 11 10 9 9 9 9 9 8 8 7 6 6 5 5 4 3 3 2 2 1 1 1 2 2 3
22 22 21 21 20 19 19 18 17 17 16 16 14 14 13 12 11 10 9 9 9 8 9 8 7 6 6 5 5 4 4 4 4 4 4 4 4 3 3 3 3 2 3
22 22 21 21 20 19 18 17 17 16 16 14 13 13 11 11 10 9 9 8 8 8 8 7 7 6 5 4 3 4 4 4 3 3 3 3 3 3 4 4 4 3 1
22 21 21 20 19 18 17 16 16 15 15 14 13 12 11 11 10 9 9 8 7 7 7 6 5 5 4 3 3 3 3 3 3 3 3 3 3 2 1 2 3 3 3
21 21 20 18 18 17 16 16 15 14 13 12 12 11 11 10 10 9 7 6 6 6 6 5 4 3 4 3 3 2 3 3 3 2 2 2 3 3 3 3 4 4 4
20 19 18 18 17 16 16 15 14 13 12 11 11 11 10 8 7 7 6 6 5 6 5 5 4 3 3 3 3 3 3 3 3 3 3 3 3 4 3 3 3 4 4
19 19 18 17 16 15 15 15 13 13 12 11 11 10 9 8 6 6 6 5 6 6 6 5 5 5 4 4 4 4 3 2 2 2 2 2 2 2 2 2 2 2 2
19 18 16 15 15 15 14 14 13 12 11 11 10 9 9 7 6 6 6 5 5 5 5 5 4 4 4 4 3 3 1 0 -0 -0 0 1 1 2 2 1 1 1 0
17 15 14 13 14 14 14 13 12 12 11 10 10 9 9 7 6 6 5 5 5 5 4 4 4 3 3 2 2 1 -0 -1 -1 -1 -1 -0 1 1 1 1 1 0 -0
14 13 12 13 14 14 13 13 12 12 11 10 10 9 8 6 6 5 5 5 5 4 4 3 3 3 3 1 0 -1 -2 -2 -2 -2 -2 -1 -1 0 0 0 0 -0 -1
12 13 13 14 13 13 13 13 12 12 11 10 10 10 7 6 6 5 5 5 4 4 3 3 3 2 1 0 -2 -3 -3 -3 -3 -3 -3 -2 -2 -2 -2 -2 -2 -3 -3
13 13 13 13 13 13 12 12 12 11 11 10 8 9 7 6 6 5 5 4 4 3 3 3 2 1 -0 -1 -2 -3 -4 -4 -4 -4 -4 -4 -4 -4 -3 -3 -3 -3 -3
13 13 13 13 13 12 12 11 10 10 11 10 7 5 6 6 5 5 5 4 3 3 3 2 1 -0 -1 -2 -3 -4 -4 -4 -4 -5 -5 -5 -4 -4 -4 -4 -4 -4 -4
13 13 13 13 12 11 10 10 10 10 10 7 6 6 7 6 5 3 2 3 3 3 2 0 -1 -2 -2 -3 -3 -3 -5 -5 -5 -5 -5 -5 -5 -5 -5 -6 -5 -5 -5
13 13 13 12 11 10 9 9 9 9 8 7 6 5 4 2 2 0 2 3 3 2 0 -1 -2 -2 -3 -3 -3 -5 -6 -6 -6 -6 -6 -6 -5 -5 -5 -6 -6 -6 -6
12 12 11 11 10 9 9 8 8 7 6 5 4 4 3 2 1 1 2 2 2 1 -1 -2 -3 -3 -3 -3 -4 -6 -6 -6 -7 -7 -7 -6 -6 -6 -6 -6 -6 -6 -6
11 10 10 9 9 9 8 8 7 5 4 4 3 2 1 1 1 -0 1 2 1 -1 -2 -3 -3 -4 -4 -5 -6 -7 -7 -7 -8 -8 -8 -7 -7 -6 -6 -6 -5 -5 -6
10 9 9 9 9 8 8 7 5 4 3 2 2 2 2 2 2 1 1 1 -0 -1 -2 -3 -4 -5 -6 -6 -7 -8 -8 -8 -8 -8 -7 -7 -7 -7 -7 -6 -6 -6 -6
9 9 9 8 8 7 6 5 3 2 1 1 1 1 1 1 1 0 -0 -1 -1 -2 -4 -4 -5 -6 -7 -8 -8 -8 -8 -8 -8 -8 -7 -7 -8 -7 -7 -7 -7 -7 -7
8 8 8 7 6 5 4 3 2 1 0 -1 -1 -1 -2 -1 -1 -1 -1 -2 -2 -3 -4 -5 -6 -7 -8 -8 -8 -8 -8 -8 -8 -8 -8 -8 -8 -8 -8 -7 -8 -8 -7

GFSMW_925_temp_027.txt.gz
Temp
20 19 20 20 21 21 20 20 20 20 20 19 19 19 19 19 19 18 18 17 16 15 15 14 14 14 14 13 13 13 12 12 12 12 12 13 13 14 14 15 15 15 15
19 18 19 19 20 20 19 19 19 19 19 18 18 18 18 18 18 16 15 15 14 14 14 13 13 13 13 12 12 11 11 10 10 9 10 10 12 12 12 13 13 12 12
18 18 18 18 19 19 19 18 18 18 18 18 18 17 17 16 16 15 14 14 13 13 12 12 11 11 11 11 11 10 10 7 7 7 7 6 7 7 10 11 11 11 10
18 18 17 18 18 18 18 18 18 18 18 17 16 16 15 14 14 14 13 13 12 11 11 11 11 10 10 10 9 8 9 8 6 6 6 4 5 5 6 9 9 8 7
17 16 17 18 18 18 18 18 18 17 17 16 16 15 15 14 14 13 12 11 11 11 10 10 9 9 9 9 8 8 7 7 7 6 4 4 3 4 3 4 4 4 5
17 18 18 18 18 18 18 18 18 17 16 16 15 15 14 13 12 11 11 10 10 9 9 8 8 8 8 8 7 6 6 5 5 5 4 3 2 2 1 2 1 2 3
16 16 17 18 18 18 18 18 17 17 16 15 14 13 12 12 11 10 9 9 9 8 8 7 7 7 6 6 6 5 4 4 4 4 4 3 3 2 1 1 1 1 3
18 17 19 19 18 18 18 17 17 16 14 14 13 12 11 11 10 9 9 9 8 8 7 7 6 6 5 5 4 5 3 4 4 4 3 3 2 2 2 2 1 1 1
18 18 18 17 17 17 16 16 16 15 14 13 12 11 11 10 10 9 9 8 7 6 6 6 6 5 4 4 4 3 3 3 3 3 3 3 2 2 1 0 1 1 1
17 15 16 17 17 17 16 16 15 14 12 12 11 11 11 10 9 8 7 6 6 6 6 5 5 5 4 3 3 3 3 3 3 3 2 2 3 1 1 1 1 0 0
15 14 16 17 16 16 15 15 14 13 12 11 11 11 10 9 9 8 7 6 6 5 5 5 5 5 4 4 3 3 3 3 3 3 2 2 2 2 3 3 3 3 3
15 15 16 15 15 15 15 14 13 12 12 11 11 10 10 9 9 8 7 7 5 5 5 5 5 4 4 4 4 3 3 2 2 1 1 1 1 1 1 2 2 2 2
14 13 13 13 13 13 14 13 13 12 11 11 11 10 9 9 8 7 6 5 5 5 5 5 4 4 4 3 3 3 2 1 1 0 -0 -1 -0 -1 -0 1 1 1 1
12 12 11 12 13 13 13 13 12 12 12 11 10 10 9 9 8 6 6 5 5 5 5 4 4 3 3 3 2 1 1 -0 -1 -1 -2 -2 -2 -1 -1 -1 -0 1 1
12 11 10 11 12 13 13 13 12 12 12 11 10 10 9 9 6 6 5 5 5 5 4 4 3 3 2 2 1 0 -1 -2 -2 -3 -3 -3 -3 -2 -2 -2 -2 -1 -1
11 11 11 12 12 13 12 12 12 12 11 11 10 9 8 7 7 6 5 5 5 4 4 3 3 2 2 1 0 -1 -2 -2 -3 -4 -4 -4 -4 -3 -3 -3 -3 -3 -3
10 10 11 12 12 12 12 11 10 10 10 9 8 6 6 5 4 3 2 4 4 4 3 3 3 2 1 -0 -1 -2 -3 -4 -4 -4 -4 -4 -5 -5 -4 -4 -4 -4 -3
10 11 12 12 13 12 10 10 9 9 9 8 7 5 5 4 3 2 3 4 3 3 3 2 1 0 -1 -2 -2 -3 -3 -4 -4 -5 -5 -5 -5 -5 -5 -5 -5 -4 -4
11 12 12 11 11 10 10 9 9 9 8 6 6 5 5 4 4 3 2 0 1 3 2 1 0 -1 -2 -3 -3 -3 -4 -5 -5 -6 -6 -6 -6 -6 -5 -5 -6 -5 -5
12 11 10 10 10 9 9 9 8 8 7 5 4 4 4 3 2 2 1 1 2 2 1 -1 -2 -2 -3 -3 -4 -5 -6 -6 -7 -7 -7 -7 -6 -6 -6 -5 -5 -6 -6
11 10 10 9 9 9 9 8 7 6 5 4 3 3 2 2 1 0 0 2 2 0 -1 -2 -2 -3 -4 -4 -5 -6 -7 -7 -7 -8 -8 -7 -7 -7 -6 -6 -6 -6 -6
10 10 9 9 8 9 8 7 5 4 4 3 2 2 2 1 1 0 -1 0 0 -1 -1 -2 -3 -4 -4 -5 -6 -7 -7 -7 -8 -8 -8 -8 -7 -7 -6 -6 -6 -6 -6
10 9 8 8 8 7 7 5 4 3 3 2 1 1 1 1 1 1 -0 -0 -1 -1 -2 -3 -4 -4 -5 -6 -7 -8 -8 -8 -8 -8 -8 -8 -7 -7 -7 -7 -6 -6 -6
7 8 7 7 7 6 5 4 3 2 2 1 0 -0 -1 -0 -0 -1 -1 -1 -2 -2 -3 -4 -4 -5 -6 -7 -8 -8 -8 -8 -8 -8 -8 -8 -8 -8 -7 -8 -8 -7 -7
7 6 6 6 6 4 3 2 2 2 1 0 -1 -1 -2 -2 -1 -1 -2 -2 -3 -3 -4 -4 -5 -6 -7 -8 -7 -8 -8 -8 -8 -8 -8 -8 -9 -8 -8 -8 -8 -8 -7
6 5 5 5 4 2 2 1 1 1 0 -1 -2 -2 -2 -2 -2 -2 -2 -3 -3 -3 -4 -4 -5 -6 -7 -8 -7 -7 -8 -8 -8 -9 -9 -9 -9 -9 -9 -9 -9 -8 -8

GFSMW_925_temp_030.txt.gz
Temp
16 16 18 18 18 18 18 17 17 17 18 18 18 18 16 16 15 15 15 14 14 13 13 12 12 12 12 12 11 11 11 11 10 10 9 10 11 11 11 11 11 11 11
16 16 17 17 17 17 17 17 17 18 17 17 16 16 16 15 15 14 13 13 13 12 12 12 11 11 10 10 10 10 10 9 8 7 7 7 9 9 9 10 9 9 9
15 15 15 17 18 17 18 18 18 18 17 17 17 17 17 16 15 13 13 12 12 12 11 10 10 10 9 9 9 9 9 8 7 7 7 6 5 5 8 8 8 7 7
15 15 16 17 18 18 18 18 17 17 17 16 16 16 15 14 13 13 13 12 12 12 11 11 10 9 9 9 8 7 7 7 7 6 6 5 4 3 4 6 6 6 6
15 14 16 18 18 18 18 17 17 17 16 16 15 15 14 13 12 11 11 11 10 9 9 9 8 8 7 7 7 6 6 5 5 4 4 4 4 3 2 1 2 3 4
14 15 17 17 18 17 17 17 16 16 16 15 15 14 13 12 12 10 10 9 9 8 8 8 7 7 7 6 5 5 4 4 4 4 4 4 3 2 2 1 1 0 3
14 14 15 16 16 17 17 17 16 15 14 14 13 13 12 11 11 10 9 9 8 7 7 7 6 6 6 5 5 5 4 4 3 3 4 3 3 2 2 1 1 1 2
15 14 15 15 16 16 16 16 15 14 13 13 12 11 11 10 10 9 8 7 7 6 6 6 6 5 5 4 4 4 3 3 3 3 3 2 3 3 2 1 1 1 1
14 13 15 15 16 16 15 15 14 13 12 12 11 11 10 10 10 9 8 7 7 7 6 5 5 5 4 4 4 3 3 3 3 3 3 2 2 2 2 2 0 -1 1
13 13 14 15 14 14 14 14 14 12 11 11 11 11 11 10 9 9 8 8 7 7 6 5 5 5 4 4 4 4 3 3 3 3 2 2 1 1 1 1 1 0 -0
13 12 12 13 14 14 14 14 12 12 12 11 11 11 10 10 9 9 9 8 7 7 6 5 5 5 4 4 3 3 3 2 2 1 1 0 0 -0 0 0 0 0 1
11 11 12 12 13 13 13 12 12 12 11 11 11 11 10 9 9 9 8 8 7 6 5 5 4 4 4 3 3 3 2 1 1 0 0 -0 -1 -1 -1 -1 -1 -1 -0
10 10 11 11 12 12 12 12 12 12 12 12 11 10 10 9 9 8 8 6 6 5 4 4 4 4 3 3 2 2 1 1 -0 -1 -1 -2 -2 -2 -2 -2 -2 -2 -1
10 10 10 11 12 12 12 12 12 11 10 10 10 10 10 8 8 7 6 5 4 1 3 4 4 3 3 3 2 1 0 -1 -1 -2 -2 -3 -3 -4 -3 -3 -3 -3 -2
11 10 10 10 11 12 12 11 10 10 10 9 9 8 7 7 7 6 5 4 2 2 1 3 3 3 2 2 1 0 -1 -2 -2 -3 -3 -4 -4 -4 -4 -4 -4 -4 -4
10 9 10 11 11 11 10 10 9 9 9 8 7 6 6 6 5 5 4 3 1 0 2 3 3 2 1 0 -1 -1 -2 -3 -3 -4 -4 -4 -5 -5 -5 -5 -5 -5 -4
9 9 10 10 9 9 9 9 9 9 8 7 6 5 5 5 4 4 3 3 1 1 1 1 2 0 -1 -1 -2 -3 -3 -4 -4 -5 -5 -5 -5 -5 -5 -5 -5 -5 -5
9 9 9 9 9 9 9 9 8 8 7 6 5 4 4 4 3 3 3 2 1 0 -1 0 0 -1 -2 -2 -3 -4 -4 -5 -5 -6 -6 -6 -6 -6 -6 -6 -5 -5 -5
9 9 9 9 9 8 8 8 8 7 6 5 4 3 3 2 2 2 2 0 -0 -1 -0 -0 -1 -2 -3 -4 -4 -5 -6 -6 -6 -6 -7 -7 -7 -7 -6 -6 -6 -5 -5
9 9 9 8 8 8 8 7 6 5 4 3 3 3 2 1 1 0 -0 -1 -1 -0 -1 -2 -2 -3 -4 -4 -5 -6 -7 -7 -8 -8 -8 -8 -7 -7 -7 -6 -6 -6 -6
9 9 8 8 8 7 7 6 5 4 3 3 2 2 1 1 1 0 -1 -1 -1 -1 -1 -2 -3 -4 -5 -5 -6 -7 -7 -8 -8 -8 -8 -8 -8 -7 -7 -6 -6 -6 -6
8 7 7 7 7 6 6 5 4 3 3 2 1 0 0 1 0 -0 -1 -1 -1 -1 -2 -3 -4 -5 -5 -6 -7 -8 -8 -8 -8 -8 -8 -8 -7 -7 -7 -7 -7 -6 -6
7 7 6 6 6 5 4 3 3 2 2 1 0 -0 -1 -1 -1 -1 -1 -2 -2 -3 -3 -4 -4 -5 -6 -6 -7 -8 -8 -8 -8 -8 -8 -8 -8 -8 -8 -8 -7 -7 -7
6 6 5 5 4 4 3 2 2 1 1 0 -0 -1 -2 -2 -2 -2 -2 -2 -3 -3 -4 -4 -5 -5 -6 -7 -7 -7 -8 -8 -8 -8 -8 -9 -9 -9 -9 -9 -8 -8 -8
5 4 4 3 3 3 2 2 1 1 0 -0 -1 -2 -2 -3 -3 -3 -3 -3 -3 -4 -4 -4 -5 -5 -6 -7 -7 -7 -8 -8 -9 -9 -9 -9 -9 -10 -9 -9 -9 -9 -8
4 3 3 2 2 1 0 1 -0 -0 -1 -1 -2 -2 -2 -3 -3 -3 -3 -3 -3 -4 -4 -4 -5 -5 -6 -7 -7 -7 -8 -8 -9 -9 -10 -10 -10 -10 -10 -10 -10 -10 -10

GFSMW_925_temp_033.txt.gz
Temp
14 14 15 15 16 16 17 16 16 17 17 17 17 16 15 14 15 15 14 14 14 14 14 13 12 12 11 11 10 10 10 9 9 8 8 9 9 9 9 8 7 7 8
14 14 15 16 17 17 17 17 18 17 17 17 16 16 15 15 15 14 14 14 13 12 12 11 11 11 10 10 9 9 8 8 8 7 6 5 7 7 7 7 7 7 6
14 13 13 16 17 18 18 18 18 18 17 17 17 16 15 14 14 13 12 11 11 10 10 10 10 10 9 8 8 7 7 6 7 6 5 4 3 4 7 6 6 6 5
13 13 13 14 16 16 17 17 17 17 17 17 17 17 16 15 12 11 11 10 10 10 10 9 9 8 8 7 7 6 6 6 5 5 5 4 4 2 2 4 4 4 3
13 14 15 16 16 16 16 16 16 16 16 15 15 15 14 13 12 11 11 10 10 9 8 8 7 7 7 6 6 5 5 4 4 4 3 3 3 2 2 2 2 2 3
14 14 16 16 16 16 16 16 16 16 15 15 14 14 13 12 11 11 10 10 9 9 8 8 7 7 6 6 5 5 4 4 3 3 3 2 2 2 2 3 3 2 2
13 12 14 14 15 16 15 15 15 14 14 13 13 12 12 11 11 11 11 10 9 9 8 7 6 6 5 5 4 4 4 3 3 3 3 2 2 2 1 1 1 1 1
14 14 14 14 15 15 15 14 14 13 13 12 12 11 11 11 11 10 10 9 8 8 7 7 6 5 5 4 4 4 4 3 3 3 2 2 2 2 2 1 0 0 0
13 12 13 13 14 14 14 14 13 12 11 11 11 11 11 11 11 10 10 9 8 7 7 6 5 5 4 4 4 3 3 3 3 3 2 2 1 1 1 1 -0 -1 -0
11 10 12 13 14 14 14 14 13 12 12 12 12 11 11 11 10 9 9 9 8 7 6 5 5 5 4 4 3 3 3 2 2 2 2 1 1 1 1 0 -0 -0 -1
10 10 11 12 13 13 13 13 12 12 12 11 11 11 11 10 9 9 8 8 7 6 5 5 4 4 4 4 3 3 3 2 2 1 0 0 -0 -1 -1 -1 -1 -1 -1
10 10 11 11 11 12 12 12 12 11 12 11 11 10 9 9 8 8 8 7 7 5 4 3 3 3 3 3 3 3 2 1 1 0 -0 -1 -1 -2 -2 -2 -3 -3 -2
9 10 10 10 11 11 12 12 12 11 10 10 9 9 9 8 8 7 7 6 5 5 4 3 1 1 3 3 3 2 1 0 -0 -1 -2 -2 -3 -3 -3 -4 -4 -3 -3
10 10 10 10 11 12 11 10 10 9 9 9 9 9 7 7 7 7 6 6 5 4 2 1 1 0 2 2 2 1 0 -1 -2 -2 -3 -3 -4 -4 -4 -4 -4 -4 -5
10 10 9 10 10 10 10 9 9 9 9 8 8 7 6 6 6 5 5 4 4 3 1 0 1 1 1 1 0 -1 -1 -2 -3 -3 -4 -4 -4 -4 -4 -5 -5 -5 -5
10 10 9 9 8 9 9 9 9 8 8 8 6 6 6 5 4 4 3 3 3 1 1 0 0 1 0 -0 -1 -2 -3 -3 -4 -4 -5 -5 -5 -5 -5 -6 -6 -5 -5
9 8 8 8 8 8 9 8 8 8 8 6 6 5 4 4 3 3 2 2 2 1 -1 -0 -1 -1 -1 -2 -3 -3 -4 -4 -5 -6 -6 -6 -6 -6 -7 -7 -6 -6 -6
9 8 8 8 8 8 8 8 8 7 6 6 4 4 3 3 2 2 1 0 -0 -1 -1 -1 -2 -2 -2 -3 -4 -4 -5 -6 -6 -7 -7 -7 -8 -7 -7 -7 -6 -6 -6
8 8 9 8 8 8 7 7 6 6 5 4 3 3 2 2 1 1 -0 -0 -1 -1 -1 -2 -2 -2 -3 -5 -5 -6 -7 -7 -8 -8 -8 -8 -8 -8 -7 -7 -6 -6 -5
8 8 8 7 7 7 6 6 6 5 4 3 3 2 1 1 1 0 -1 -1 -1 -1 -2 -2 -3 -4 -4 -5 -6 -7 -7 -8 -8 -8 -8 -8 -8 -7 -6 -6 -6 -6 -6
8 7 7 6 6 6 6 5 5 4 3 3 2 1 0 0 0 -0 -2 -2 -2 -2 -2 -3 -4 -4 -5 -6 -7 -7 -8 -8 -8 -8 -8 -8 -8 -7 -7 -7 -7 -7 -7
6 6 6 6 5 5 5 4 3 3 2 2 1 0 -0 -1 -0 -1 -1 -2 -2 -2 -3 -4 -4 -5 -6 -6 -7 -7 -7 -8 -8 -9 -8 -8 -8 -8 -8 -8 -8 -7 -7
6 5 5 4 4 4 4 3 2 2 1 1 0 -1 -1 -1 -2 -1 -2 -2 -2 -3 -4 -4 -5 -5 -6 -6 -7 -7 -8 -8 -8 -8 -8 -9 -9 -9 -9 -9 -8 -8 -8
5 4 4 3 3 3 2 2 1 1 1 0 -0 -1 -2 -2 -2 -2 -2 -3 -3 -4 -4 -4 -5 -5 -6 -6 -7 -7 -8 -8 -9 -9 -9 -9 -9 -9 -10 -9 -9 -9 -9
4 3 2 2 2 1 1 0 -0 -0 -1 -1 -1 -2 -3 -3 -3 -3 -4 -4 -4 -4 -4 -4 -5 -5 -6 -7 -7 -7 -8 -8 -9 -9 -10 -10 -10 -11 -11 -10 -10 -10 -10
3 2 2 1 0 -0 -1 -1 -1 -1 -1 -2 -2 -2 -3 -3 -3 -3 -4 -4 -4 -4 -4 -4 -4 -5 -6 -7 -7 -7 -8 -9 -10 -10 -11 -11 -11 -11 -11 -12 -12 -11 -11

GFSMW_925_temp_036.txt.gz
Temp
13 13 13 15 15 15 16 16 16 13 13 14 15 15 15 15 15 15 15 14 13 13 12 12 11 11 11 10 9 8 8 8 7 7 7 8 8 8 7 7 7 7 6
12 13 14 16 16 15 15 15 16 15 16 16 16 17 16 15 15 14 13 12 12 11 11 11 11 10 10 9 8 7 7 7 6 6 5 4 6 6 7 7 7 6 6
12 12 13 14 15 16 17 17 17 18 18 18 18 17 16 14 13 12 12 11 11 11 11 10 10 9 9 8 7 7 6 6 6 5 5 3 2 2 5 6 5 5 4
13 12 13 14 17 17 17 18 18 18 17 17 16 16 15 14 13 11 11 10 11 10 10 10 9 8 8 7 7 6 6 5 5 5 5 4 3 1 1 4 4 4 3
12 12 13 15 15 16 16 17 17 16 16 16 15 15 15 13 11 11 11 11 10 10 10 9 8 7 6 6 5 5 5 4 4 3 3 3 3 2 1 2 3 3 3
14 14 14 15 14 15 15 15 15 15 15 15 14 14 13 12 11 11 11 11 11 10 9 8 8 7 6 5 5 4 4 3 3 3 2 2 1 2 2 2 1 1 1
13 12 13 13 14 15 14 14 14 14 14 13 13 12 12 11 11 11 11 11 10 9 9 8 7 7 6 5 4 4 4 3 3 3 2 2 2 1 1 1 0 0 0
12 13 14 14 13 13 14 14 14 13 13 12 12 12 12 12 11 11 10 10 9 9 8 8 7 6 5 5 4 4 4 3 3 3 2 2 2 1 1 0 -0 -1 -1
13 11 12 12 12 13 14 13 13 13 12 12 12 11 11 11 10 10 9 9 9 8 7 6 6 5 4 4 4 3 3 3 3 2 2 1 1 0 0 0 -0 -1 -2
10 9 10 11 12 12 13 13 13 12 11 11 10 11 11 10 9 9 9 8 8 7 6 5 5 4 3 2 3 3 3 3 2 2 1 1 0 0 -0 -1 -1 -2 -2
9 9 10 11 12 12 13 13 12 11 12 11 10 10 9 9 9 8 7 7 6 6 5 4 4 3 3 3 2 2 3 2 2 1 0 0 -1 -1 -1 -2 -2 -3 -3
9 9 10 11 11 12 12 12 11 11 10 9 10 9 9 8 7 7 7 6 6 6 5 4 3 3 3 2 1 2 2 2 0 0 -1 -1 -1 -2 -3 -3 -4 -4 -4
9 8 9 10 10 10 11 10 10 9 10 9 9 9 8 7 7 6 6 5 5 5 4 2 2 2 1 0 1 1 0 -0 -1 -1 -2 -2 -3 -4 -4 -4 -4 -4 -5
9 9 9 9 10 10 9 9 9 9 9 9 8 8 7 6 6 5 4 4 4 3 2 2 1 0 -0 -0 1 1 -1 -1 -2 -2 -3 -4 -4 -4 -5 -5 -5 -5 -5
9 9 9 9 9 8 9 9 9 9 8 8 7 7 6 5 5 4 4 3 3 2 2 1 0 -0 0 0 -0 -1 -2 -3 -3 -4 -4 -5 -5 -5 -5 -5 -5 -6 -6
9 9 9 8 8 8 9 9 9 8 8 7 6 5 5 5 4 3 2 2 1 1 1 0 -0 -0 -1 -1 -2 -2 -3 -4 -5 -6 -6 -6 -6 -6 -6 -6 -6 -6 -6
8 8 7 7 8 8 8 8 8 7 7 6 5 5 4 3 2 2 1 0 -0 -0 -1 -1 -1 -2 -2 -2 -2 -3 -4 -5 -6 -7 -7 -8 -7 -8 -8 -8 -7 -7 -6
7 7 7 8 8 8 7 7 7 7 6 5 5 4 3 2 1 1 0 -0 -0 -1 -2 -2 -2 -2 -2 -3 -4 -5 -6 -6 -7 -8 -8 -8 -8 -8 -7 -7 -6 -6 -6
7 8 8 7 7 7 7 7 6 6 5 4 3 3 2 1 1 0 -0 -2 -2 -2 -2 -2 -2 -3 -4 -5 -5 -6 -7 -7 -8 -8 -8 -8 -8 -8 -7 -7 -7 -7 -6
8 8 7 7 7 6 6 5 5 4 3 3 2 2 1 1 0 -0 -2 -2 -2 -2 -3 -3 -3 -4 -4 -5 -6 -7 -7 -8 -8 -8 -8 -8 -8 -7 -7 -7 -7 -7 -7
7 7 6 6 5 5 5 4 4 3 2 2 2 1 0 -0 -1 -2 -2 -2 -2 -3 -3 -3 -4 -4 -5 -6 -6 -7 -7 -8 -8 -8 -9 -8 -8 -8 -7 -8 -8 -7 -8
6 6 5 5 4 4 4 3 3 2 2 1 1 0 0 -1 -1 -2 -1 -2 -2 -3 -3 -3 -4 -5 -5 -6 -7 -7 -7 -8 -8 -9 -9 -9 -8 -8 -8 -9 -8 -8 -8
5 5 4 4 3 3 2 2 2 1 0 0 0 0 -0 -1 -2 -2 -2 -3 -3 -3 -3 -4 -4 -5 -6 -6 -7 -7 -8 -8 -9 -9 -9 -10 -10 -10 -10 -10 -9 -9 -9
4 4 3 2 2 2 1 1 0 -0 -0 -1 -1 -1 -2 -2 -3 -3 -2 -3 -4 -4 -4 -4 -5 -5 -6 -6 -7 -7 -8 -8 -9 -9 -10 -10 -10 -10 -10 -10 -10 -10 -10
3 3 2 1 1 1 0 -0 -1 -1 -1 -1 -1 -2 -2 -3 -3 -3 -3 -4 -4 -4 -4 -5 -5 -5 -5 -6 -7 -7 -8 -8 -9 -10 -10 -10 -11 -11 -11 -11 -11 -11 -11
2 2 1 1 0 -0 -1 -1 -1 -2 -2 -2 -2 -2 -3 -3 -3 -3 -4 -4 -4 -5 -5 -5 -5 -5 -5 -6 -7 -7 -8 -9 -9 -10 -11 -11 -11 -12 -12 -12 -12 -12 -12

GFSMW_925_temp_042.txt.gz
Temp
20 19 18 17 17 15 15 15 14 15 15 14 13 13 13 13 13 13 12 12 12 12 12 12 12 11 11 10 10 10 11 11 10 10 12 12 12 11 11 10 10 9 8
21 19 18 18 17 16 16 15 16 15 15 16 16 16 16 15 14 13 12 12 11 11 11 11 11 11 11 10 10 9 10 10 10 9 10 12 12 12 10 9 9 8 8
21 20 19 18 17 17 17 18 17 17 17 17 16 15 14 14 14 13 12 11 11 11 11 11 10 10 10 10 9 9 9 9 9 9 9 10 11 10 10 9 8 8 7
21 20 19 19 19 18 18 19 18 17 16 15 16 16 17 17 15 14 13 12 11 11 11 10 10 9 9 9 9 9 8 8 9 9 9 8 7 6 6 7 7 7 7
21 21 20 19 19 17 17 17 17 17 15 15 16 16 16 15 13 13 12 12 11 10 10 10 9 9 9 9 8 8 7 7 7 7 7 6 6 6 6 6 7 7 7
21 21 20 19 18 16 16 16 16 15 15 15 14 14 14 14 14 13 13 13 12 11 10 9 9 9 8 8 8 7 6 6 6 5 5 5 4 5 5 5 5 5 6
21 21 20 19 18 16 16 15 16 16 14 14 14 14 13 13 13 13 13 12 12 11 10 9 8 8 8 7 7 6 6 5 5 5 5 4 3 3 3 3 4 5 5
21 21 20 19 18 17 17 16 16 15 14 14 13 12 13 13 12 12 11 10 10 9 8 7 7 7 7 7 6 5 5 5 5 4 4 3 4 3 3 3 4 4 5
21 21 20 18 18 17 16 16 15 14 13 12 12 11 11 11 11 10 9 9 8 8 8 7 7 7 7 6 6 5 5 5 4 3 3 4 4 3 3 3 3 2 3
21 21 19 17 17 16 15 14 14 13 11 11 10 11 10 10 9 9 8 8 8 8 7 7 6 6 6 6 5 5 5 4 3 4 3 3 3 3 3 3 3 2 2
20 20 18 16 16 15 14 14 12 12 11 10 10 10 10 9 9 9 8 8 7 7 6 6 5 5 5 5 4 3 4 2 2 3 2 2 2 2 2 2 2 2 2
20 18 17 15 15 15 14 13 12 11 10 9 10 10 10 9 9 8 7 7 6 6 5 5 5 5 4 2 2 1 1 2 3 3 2 2 1 2 2 2 1 1 1
18 17 16 15 15 14 13 12 11 11 10 10 10 10 9 8 8 7 6 6 5 5 4 4 4 4 3 2 1 1 2 2 2 2 1 1 1 1 1 0 0 0 -0
17 17 16 15 14 13 12 11 10 10 10 10 10 9 9 8 7 6 5 5 4 4 3 3 3 2 1 2 2 2 2 2 1 1 0 0 -0 -1 -1 -2 -2 -1 -2
17 17 16 15 14 13 11 11 11 10 10 10 9 9 7 6 6 5 5 4 3 3 3 2 2 1 2 2 1 1 1 1 0 0 -1 -1 -2 -4 -5 -5 -4 -3 -3
17 17 16 14 13 12 11 11 10 10 9 9 8 8 6 6 5 5 4 3 3 3 2 1 1 1 0 -1 -1 -1 -0 -0 -1 -1 -1 -2 -3 -3 -5 -5 -6 -6 -5
16 16 15 13 12 11 11 11 10 8 8 8 7 6 5 5 5 4 3 3 3 2 0 0 -1 -1 -1 -2 -2 -2 -1 -2 -2 -2 -2 -2 -3 -4 -4 -5 -5 -5 -5
16 15 13 11 10 10 10 9 9 8 7 7 6 5 5 4 4 3 3 2 2 0 0 -0 -1 -0 -1 -3 -3 -3 -2 -2 -2 -3 -3 -3 -4 -4 -6 -6 -5 -5 -5
15 14 11 10 10 9 9 8 8 7 6 6 5 5 4 4 3 3 2 2 -0 -0 -1 -1 -1 -1 -1 -3 -4 -4 -3 -3 -3 -3 -4 -4 -5 -6 -7 -7 -6 -6 -5
13 12 10 9 9 7 7 7 7 7 6 5 4 4 4 3 3 2 2 1 0 -0 -1 -2 -1 -1 -2 -3 -4 -5 -4 -4 -4 -3 -4 -5 -6 -8 -8 -7 -7 -6 -6
11 10 9 9 8 7 6 7 7 6 5 4 3 3 3 2 2 1 1 1 0 -0 -1 -2 -2 -2 -2 -3 -4 -5 -5 -4 -4 -4 -4 -5 -7 -8 -8 -8 -7 -7 -8
9 9 8 8 7 6 5 7 6 5 4 3 3 3 2 2 2 1 1 0 -0 -0 -1 -2 -3 -2 -3 -4 -5 -5 -6 -6 -6 -5 -5 -6 -8 -9 -9 -9 -9 -9 -9
7 7 7 6 6 5 4 5 5 3 3 2 2 2 2 2 1 1 -0 -0 -0 -1 -2 -2 -2 -2 -2 -3 -4 -5 -6 -6 -7 -6 -7 -8 -9 -9 -8 -8 -9 -9 -8
6 5 6 6 6 4 3 4 3 2 2 1 2 2 2 1 1 0 -1 -1 -1 -1 -1 -2 -2 -2 -3 -3 -4 -4 -5 -6 -6 -6 -7 -8 -8 -8 -8 -7 -7 -8 -8
4 5 5 5 5 4 3 3 2 1 1 1 1 1 1 1 1 0 -0 -1 -1 -2 -2 -2 -3 -3 -4 -4 -4 -4 -5 -5 -6 -7 -7 -6 -6 -6 -6 -6 -7 -7 -8
5 4 4 3 3 3 3 2 1 1 1 1 1 1 1 0 -0 -0 -0 -1 -2 -2 -3 -4 -4 -4 -4 -4 -5 -5 -6 -7 -8 -7 -6 -6 -6 -7 -7 -7 -7 -7 -8

GFSMW_925_temp_045.txt.gz
Temp
25 23 23 23 23 22 19 17 15 14 15 16 15 15 15 15 15 15 14 14 14 13 13 14 13 13 13 12 12 11 11 12 12 12 12 12 12 13 13 13 12 11 11
24 23 22 22 21 19 17 16 16 16 17 18 17 17 17 17 16 15 14 14 13 13 13 12 13 12 12 12 12 11 11 11 11 11 11 12 12 12 12 11 11 11 10
25 23 22 21 19 18 17 17 18 18 19 19 18 18 17 16 16 15 15 14 13 13 13 12 12 12 12 11 11 11 10 10 10 10 10 11 10 10 10 10 9 9 9
25 24 23 20 18 19 19 20 20 19 19 18 18 18 18 18 17 17 16 14 13 13 12 12 11 11 11 11 11 11 10 9 10 10 10 9 9 9 8 8 8 8 8
24 24 23 22 21 21 20 20 20 19 18 18 18 18 18 17 16 16 15 14 13 13 12 12 11 11 10 10 10 9 9 9 8 8 8 7 7 7 7 7 7 7 7
24 24 23 22 21 20 20 20 19 19 18 17 17 17 17 16 16 15 15 14 14 13 13 12 11 10 10 10 9 9 8 8 7 7 6 6 6 6 6 6 5 5 6
24 24 23 22 20 19 19 19 19 18 17 17 16 16 15 15 15 14 14 14 13 13 12 11 10 10 9 9 8 8 8 7 6 6 5 6 6 5 5 5 4 5 6
23 23 23 22 21 19 18 18 19 18 17 16 16 15 15 15 14 14 13 12 12 11 11 10 9 9 8 8 8 8 8 7 5 5 5 5 5 5 5 5 5 5 5
23 24 23 22 21 19 19 18 18 17 16 15 14 14 13 13 13 12 12 11 11 10 10 9 8 8 8 7 7 7 7 6 6 5 5 4 5 5 4 4 4 4 3
24 24 23 21 21 20 19 18 18 17 15 14 14 13 12 12 12 11 11 10 10 9 9 8 8 7 7 7 7 7 7 5 5 5 4 4 4 4 3 3 3 4 4
24 24 23 21 20 19 18 17 17 16 14 14 12 11 12 12 11 11 10 10 9 8 8 7 7 7 7 7 6 5 4 4 4 4 4 3 3 3 2 3 3 4 4
24 24 23 21 19 18 17 16 15 15 14 12 11 11 11 11 11 11 10 9 8 7 7 7 6 6 6 6 4 3 3 4 3 3 3 3 3 3 3 3 3 3 3
24 23 22 20 19 18 17 16 15 14 11 10 11 12 12 11 10 10 9 8 7 7 6 6 6 5 5 4 3 3 3 2 2 2 2 2 2 2 2 2 1 1 1
24 22 21 19 18 18 16 15 14 11 10 12 13 12 11 10 10 9 8 7 6 6 6 5 5 4 3 3 3 2 2 2 2 2 2 2 1 1 -0 -1 -1 -1 -1
22 21 20 19 18 17 15 14 12 12 12 12 12 11 10 9 8 8 7 6 6 5 5 5 4 3 3 2 1 2 1 1 2 2 2 1 0 -1 -3 -3 -3 -3 -3
22 21 20 19 18 16 14 13 12 12 12 11 11 10 9 8 8 7 6 6 5 5 5 4 3 2 2 0 0 -1 0 1 1 1 1 0 -0 -1 -2 -3 -5 -5 -5
21 20 20 18 17 15 14 13 12 11 10 10 10 9 8 7 7 7 6 5 5 5 4 2 1 1 0 -1 -1 -1 -1 -0 0 0 -0 -1 -1 -1 -2 -3 -4 -4 -4
21 20 19 17 15 14 13 12 11 10 10 9 9 8 7 7 6 6 5 5 5 4 2 2 1 0 -1 -1 -1 -2 -2 -0 -0 -1 -1 -1 -2 -3 -5 -5 -5 -5 -4
20 19 17 15 14 13 12 11 10 10 9 8 8 7 7 6 6 5 5 4 4 2 1 0 -0 0 -0 -2 -2 -2 -2 -1 -1 -2 -1 -2 -3 -4 -6 -7 -6 -6 -5
18 17 15 13 13 11 10 10 10 9 8 8 7 7 6 6 5 5 4 4 3 2 1 -0 -0 -1 -1 -2 -2 -3 -3 -2 -2 -2 -2 -3 -4 -6 -7 -7 -7 -6 -5
17 15 13 12 11 9 7 8 8 9 8 6 6 5 5 5 5 4 4 3 3 1 -0 -1 -1 -1 -2 -2 -3 -3 -4 -3 -3 -3 -3 -3 -5 -6 -8 -8 -8 -7 -8
14 13 12 10 8 7 7 9 9 7 7 5 5 5 5 4 4 4 3 3 2 0 -0 -1 -1 -1 -1 -2 -3 -3 -4 -5 -5 -4 -4 -4 -6 -8 -8 -8 -7 -8 -8
12 10 8 6 6 6 6 6 6 6 5 4 4 4 4 4 4 3 3 2 0 0 -0 -1 -1 -1 -1 -2 -3 -4 -4 -5 -6 -5 -5 -6 -7 -7 -6 -6 -7 -7 -6
8 6 5 5 7 6 5 5 4 4 3 3 3 3 3 3 3 3 3 1 0 0 -0 -1 -1 -1 -1 -2 -2 -4 -5 -5 -5 -5 -5 -6 -6 -5 -5 -6 -5 -6 -6
4 5 6 6 6 6 5 4 4 3 3 3 3 3 3 3 3 2 2 1 0 -0 -0 -1 -1 -1 -2 -2 -3 -3 -4 -4 -4 -5 -6 -5 -4 -4 -4 -4 -5 -5 -5
4 3 5 5 5 5 5 4 4 4 3 3 3 3 2 2 2 2 1 1 0 -0 -1 -1 -2 -2 -3 -3 -4 -4 -4 -5 -6 -6 -5 -4 -4 -5 -5 -5 -5 -5 -6